Showing default

ASTROCAST-0403, 55111

Orbit data source: Space-Track

ASTROCAST-0403, 55111 is a payload satellite owned by Astrocast (CH) in SSO that was launched on Tue, 03 Jan 2023 UTC via an FALCON 9 launch vehicle from the Air Force Eastern Test Range (AFETR). Payload-class satellites include a variety of spacecraft equipped with specific instruments for various scientific and technological missions. These include communications satellites like Starlink; space stations such as the ISS; scientific satellites like the Hubble; Earth observation satellites from companies like Planet Labs, Umbra, and HawkEye 360; GPS; miniature CubeSats for education and research; and military/defense satellites.

Loading next visibility...
Identifier
55111, 2023-001DG
Orbit
SSO
Country
Flag of CHCH / SWTZ
Related business
Manufacturer
Astrocast
Mission
Operational Commercial Communications
Bus & Motor
CUBESAT 3U, Unknown motor
Mass
4.5 kg wet, 4.5 kg dry
Launch date (UTC)
2023-01-03 (3 years ago)
Launch vehicle
FALCON 9
Launch site
Air Force Eastern Test Range (AFETR)
Object type
Payload
Rocket body
Debris
Shape & HBR
Box, 0.1 m
Radar Cross Section
0.035 m², Medium (>0.1 m² and < 1m²)

Expand to show TLE details & history
Last TLE update: 1 week ago

TLE from 1 week ago
0 ASTROCAST-0403
1 55111U 23001DG  26155.06328123  .00027608  00000-0  92153-3 0  9999
2 55111  97.5612 248.9793 0004978  32.5296 327.6250 15.31008838142551
Epoch: 2026-06-04T01:31Z
TLE epoch observation values (Epoch: 2026-06-04T01:31:07.498Z)
Latitude
-0.00007°
Longitude
-26.31486°
Altitude
473.021 km
Speed
7.631 km/s
True Right ascension
16h 35m 55s
True Declination
0° 00' 00"
Sunlit
Object was in full shadow at epoch
Visualization orbit readout
Latitude
Unknown
Longitude
Unknown
Altitude
Unknown
Speed
Unknown
Apparent Right ascension
Unknown
Apparent Declination
Unknown
Sunlit
N/A
Visualization observer readout
Local Sidereal Time
15:30:21
Azimuth
Unknown
Elevation
Unknown
Doppler factor
Unknown
Orbital elements
Apogee altitude
473.168 km
Perigee altitude
466.35 km
Semi-major axis
6,847.896 km
Eccentricity
0.0005
Inclination
97.5612°
RAAN
248.9793°
Arg. of periapsis
32.5296°
True anomaly
327.59444°
Mean anomaly
327.625°
Eccentric anomaly
327.60972°
Mean motion
3.83008 °/min
Orbital period
93.99 mins
BSTAR
0.00092153
Loading maneuver chart data...
Computing Atmospheric mass density...

Documentation

Showing up to 5 results
|